Time,TemperatureF,DewpointF,PressureIn,WindDirection,WindDirectionDegrees,WindSpeedMPH,WindSpeedGustMPH,Humidity,HourlyPrecipIn,Conditions,Clouds,dailyrainin,SoftwareType,DateUTC
2013-01-19 00:00:00,32.8,31.0,30.28,ESE,111,0.0,7.0,93,0.00,,,0.00,Wunderground v.1.15,2013-01-19 06:00:00,
2013-01-19 00:05:00,32.6,30.8,30.28,ESE,112,0.0,7.0,93,0.00,,,0.00,Wunderground v.1.15,2013-01-19 06:05:00,
2013-01-19 00:15:00,32.4,30.6,30.28,ESE,112,0.0,0.0,93,0.00,,,0.00,Wunderground v.1.15,2013-01-19 06:15:00,
2013-01-19 00:20:00,32.4,30.6,30.28,ESE,112,0.0,0.0,93,0.00,,,0.00,Wunderground v.1.15,2013-01-19 06:20:00,
2013-01-19 00:25:00,32.3,30.5,30.28,ESE,111,0.0,0.0,93,0.00,,,0.00,Wunderground v.1.15,2013-01-19 06:25:00,
2013-01-19 00:30:00,32.3,30.5,30.28,ESE,111,0.0,0.0,93,0.00,,,0.00,Wunderground v.1.15,2013-01-19 06:30:00,
2013-01-19 00:35:00,32.2,30.4,30.28,ESE,112,0.0,0.0,93,0.00,,,0.00,Wunderground v.1.15,2013-01-19 06:35:00,
2013-01-19 00:40:00,32.1,30.3,30.28,ESE,112,0.0,0.0,93,0.00,,,0.00,Wunderground v.1.15,2013-01-19 06:40:00,
2013-01-19 00:45:00,32.1,30.3,30.28,ESE,112,0.0,0.0,93,0.00,,,0.00,Wunderground v.1.15,2013-01-19 06:45:00,
2013-01-19 00:50:00,32.0,30.2,30.28,ESE,112,0.0,0.0,93,0.00,,,0.00,Wunderground v.1.15,2013-01-19 06:50:00,
2013-01-19 00:55:00,31.9,30.4,30.28,ESE,112,0.0,0.0,94,0.00,,,0.00,Wunderground v.1.15,2013-01-19 06:55:00,
2013-01-19 01:00:00,31.8,30.3,30.28,ESE,112,0.0,0.0,94,0.00,,,0.00,Wunderground v.1.15,2013-01-19 07:00:00,
2013-01-19 01:05:00,31.7,29.9,30.28,ESE,111,0.0,0.0,93,0.00,,,0.00,Wunderground v.1.15,2013-01-19 07:05:00,
2013-01-19 01:10:00,31.6,29.8,30.28,ESE,112,0.0,0.0,93,0.00,,,0.00,Wunderground v.1.15,2013-01-19 07:10:00,
2013-01-19 01:15:00,31.5,29.7,30.28,ESE,112,0.0,0.0,93,0.00,,,0.00,Wunderground v.1.15,2013-01-19 07:15:00,
2013-01-19 01:20:00,31.5,30.0,30.28,ESE,111,0.0,0.0,94,0.00,,,0.00,Wunderground v.1.15,2013-01-19 07:20:00,
2013-01-19 01:30:00,31.2,29.7,30.28,ESE,111,0.0,0.0,94,0.00,,,0.00,Wunderground v.1.15,2013-01-19 07:30:00,
2013-01-19 01:35:00,31.1,29.3,30.28,ESE,111,0.0,0.0,93,0.00,,,0.00,Wunderground v.1.15,2013-01-19 07:35:00,
2013-01-19 01:40:00,31.1,29.6,30.28,ESE,112,0.0,0.0,94,0.00,,,0.00,Wunderground v.1.15,2013-01-19 07:40:00,
2013-01-19 01:45:00,31.1,29.6,30.28,ESE,112,0.0,0.0,94,0.00,,,0.00,Wunderground v.1.15,2013-01-19 07:45:00,
2013-01-19 01:50:00,31.0,29.5,30.28,ESE,111,0.0,0.0,94,0.00,,,0.00,Wunderground v.1.15,2013-01-19 07:50:00,
2013-01-19 01:55:00,31.0,29.5,30.28,ESE,112,0.0,0.0,94,0.00,,,0.00,Wunderground v.1.15,2013-01-19 07:55:00,
2013-01-19 02:00:00,31.0,29.5,30.28,ESE,112,0.0,0.0,94,0.00,,,0.00,Wunderground v.1.15,2013-01-19 08:00:00,
2013-01-19 02:05:00,31.0,29.5,30.28,ESE,112,0.0,0.0,94,0.00,,,0.00,Wunderground v.1.15,2013-01-19 08:05:00,
2013-01-19 02:15:00,30.9,29.4,30.28,ESE,112,0.0,0.0,94,0.00,,,0.00,Wunderground v.1.15,2013-01-19 08:15:00,
2013-01-19 02:20:00,30.9,30.9,30.27,ESE,111,0.0,0.0,100,0.00,,,0.00,Wunderground v.1.15,2013-01-19 08:20:00,
2013-01-19 02:25:00,30.9,30.9,30.27,ESE,112,0.0,0.0,100,0.00,,,0.00,Wunderground v.1.15,2013-01-19 08:25:00,
2013-01-19 02:30:00,30.9,29.4,30.27,ESE,111,0.0,0.0,94,0.00,,,0.00,Wunderground v.1.15,2013-01-19 08:30:00,
2013-01-19 02:35:00,30.8,29.3,30.27,ESE,112,0.0,0.0,94,0.00,,,0.00,Wunderground v.1.15,2013-01-19 08:35:00,
2013-01-19 02:45:00,30.8,29.3,30.27,ESE,111,0.0,0.0,94,0.00,,,0.00,Wunderground v.1.15,2013-01-19 08:45:00,
2013-01-19 02:50:00,30.8,29.3,30.27,ESE,111,0.0,0.0,94,0.00,,,0.00,Wunderground v.1.15,2013-01-19 08:50:00,
2013-01-19 02:55:00,30.7,29.2,30.27,ESE,112,0.0,0.0,94,0.00,,,0.00,Wunderground v.1.15,2013-01-19 08:55:00,
2013-01-19 03:00:00,30.6,29.1,30.27,ESE,111,0.0,0.0,94,0.00,,,0.00,Wunderground v.1.15,2013-01-19 09:00:00,
2013-01-19 03:05:00,30.5,29.0,30.26,ESE,112,0.0,0.0,94,0.00,,,0.00,Wunderground v.1.15,2013-01-19 09:05:00,
2013-01-19 03:10:00,30.5,29.0,30.26,ESE,112,0.0,0.0,94,0.00,,,0.00,Wunderground v.1.15,2013-01-19 09:10:00,
2013-01-19 03:15:00,30.5,29.0,30.26,ESE,111,0.0,0.0,94,0.00,,,0.00,Wunderground v.1.15,2013-01-19 09:15:00,
2013-01-19 03:20:00,30.6,29.1,30.26,ESE,112,0.0,0.0,94,0.00,,,0.00,Wunderground v.1.15,2013-01-19 09:20:00,
2013-01-19 03:25:00,30.5,29.0,30.26,ESE,111,0.0,0.0,94,0.00,,,0.00,Wunderground v.1.15,2013-01-19 09:25:00,
2013-01-19 03:30:00,30.5,29.0,30.26,ESE,111,0.0,0.0,94,0.00,,,0.00,Wunderground v.1.15,2013-01-19 09:30:00,
2013-01-19 03:35:00,30.5,29.0,30.26,ESE,112,0.0,0.0,94,0.00,,,0.00,Wunderground v.1.15,2013-01-19 09:35:00,
2013-01-19 03:40:00,30.5,29.0,30.26,ESE,111,0.0,0.0,94,0.00,,,0.00,Wunderground v.1.15,2013-01-19 09:40:00,
2013-01-19 03:45:00,30.4,28.9,30.26,ESE,112,0.0,0.0,94,0.00,,,0.00,Wunderground v.1.15,2013-01-19 09:45:00,
2013-01-19 03:50:00,30.4,28.9,30.25,ESE,112,0.0,0.0,94,0.00,,,0.00,Wunderground v.1.15,2013-01-19 09:50:00,
2013-01-19 03:55:00,30.4,28.9,30.25,ESE,111,0.0,0.0,94,0.00,,,0.00,Wunderground v.1.15,2013-01-19 09:55:00,
2013-01-19 04:05:00,30.3,28.8,30.25,ESE,112,0.0,0.0,94,0.00,,,0.00,Wunderground v.1.15,2013-01-19 10:05:00,
2013-01-19 04:10:00,30.3,28.8,30.25,ESE,112,0.0,0.0,94,0.00,,,0.00,Wunderground v.1.15,2013-01-19 10:10:00,
2013-01-19 04:15:00,30.3,29.0,30.25,ESE,112,0.0,0.0,95,0.00,,,0.00,Wunderground v.1.15,2013-01-19 10:15:00,
2013-01-19 04:20:00,30.3,29.0,30.25,ESE,112,0.0,0.0,95,0.00,,,0.00,Wunderground v.1.15,2013-01-19 10:20:00,
2013-01-19 04:25:00,30.3,29.0,30.25,ESE,112,0.0,0.0,95,0.00,,,0.00,Wunderground v.1.15,2013-01-19 10:25:00,
2013-01-19 04:30:00,30.2,28.9,30.25,ESE,111,0.0,0.0,95,0.00,,,0.00,Wunderground v.1.15,2013-01-19 10:30:00,
2013-01-19 04:35:00,30.2,28.9,30.26,ESE,112,0.0,0.0,95,0.00,,,0.00,Wunderground v.1.15,2013-01-19 10:35:00,
2013-01-19 04:40:00,30.2,28.9,30.26,ESE,112,0.0,0.0,95,0.00,,,0.00,Wunderground v.1.15,2013-01-19 10:40:00,
2013-01-19 04:45:00,30.2,28.9,30.26,ESE,111,0.0,0.0,95,0.00,,,0.00,Wunderground v.1.15,2013-01-19 10:45:00,
2013-01-19 04:50:00,30.1,28.8,30.26,ESE,112,0.0,0.0,95,0.00,,,0.00,Wunderground v.1.15,2013-01-19 10:50:00,
2013-01-19 05:00:00,30.2,28.9,30.26,ESE,111,0.0,0.0,95,0.00,,,0.00,Wunderground v.1.15,2013-01-19 11:00:00,
2013-01-19 05:05:00,30.2,28.9,30.25,ESE,112,0.0,0.0,95,0.00,,,0.00,Wunderground v.1.15,2013-01-19 11:05:00,
2013-01-19 05:10:00,30.2,28.9,30.25,ESE,112,0.0,0.0,95,0.00,,,0.00,Wunderground v.1.15,2013-01-19 11:10:00,
2013-01-19 06:50:00,30.7,29.4,30.26,ESE,112,0.0,0.0,95,0.00,,,0.00,Wunderground v.1.15,2013-01-19 12:50:00,
2013-01-19 06:55:00,30.7,29.4,30.26,ESE,111,0.0,0.0,95,0.00,,,0.00,Wunderground v.1.15,2013-01-19 12:55:00,
2013-01-19 07:05:00,30.6,29.3,30.26,ESE,112,0.0,0.0,95,0.00,,,0.00,Wunderground v.1.15,2013-01-19 13:05:00,
2013-01-19 07:10:00,30.7,29.4,30.26,ESE,112,0.0,0.0,95,0.00,,,0.00,Wunderground v.1.15,2013-01-19 13:10:00,
2013-01-19 07:15:00,30.8,29.5,30.26,ESE,111,0.0,0.0,95,0.00,,,0.00,Wunderground v.1.15,2013-01-19 13:15:00,
2013-01-19 07:20:00,30.9,29.6,30.26,ESE,112,0.0,0.0,95,0.00,,,0.00,Wunderground v.1.15,2013-01-19 13:20:00,
2013-01-19 07:25:00,31.0,29.7,30.26,ESE,112,0.0,0.0,95,0.00,,,0.00,Wunderground v.1.15,2013-01-19 13:25:00,
2013-01-19 07:30:00,31.2,29.9,30.26,ESE,111,0.0,0.0,95,0.00,,,0.00,Wunderground v.1.15,2013-01-19 13:30:00,
2013-01-19 07:35:00,31.4,30.1,30.26,ESE,112,0.0,0.0,95,0.00,,,0.00,Wunderground v.1.15,2013-01-19 13:35:00,
2013-01-19 07:40:00,31.6,30.3,30.26,ESE,112,0.0,0.0,95,0.00,,,0.00,Wunderground v.1.15,2013-01-19 13:40:00,
2013-01-19 07:45:00,31.7,30.4,30.26,ESE,112,0.0,0.0,95,0.00,,,0.00,Wunderground v.1.15,2013-01-19 13:45:00,
2013-01-19 07:50:00,31.9,30.6,30.26,ESE,111,0.0,1.0,95,0.00,,,0.00,Wunderground v.1.15,2013-01-19 13:50:00,
2013-01-19 07:55:00,32.3,31.0,30.26,ESE,112,0.0,1.0,95,0.00,,,0.00,Wunderground v.1.15,2013-01-19 13:55:00,
2013-01-19 08:00:00,32.6,31.6,30.26,ESE,112,0.0,0.0,96,0.00,,,0.00,Wunderground v.1.15,2013-01-19 14:00:00,
2013-01-19 08:05:00,32.9,31.9,30.26,ESE,111,0.0,0.0,96,0.00,,,0.00,Wunderground v.1.15,2013-01-19 14:05:00,
2013-01-19 08:10:00,33.2,32.2,30.26,ESE,112,0.0,0.0,96,0.00,,,0.00,Wunderground v.1.15,2013-01-19 14:10:00,
2013-01-19 08:15:00,33.8,32.8,30.26,ESE,111,0.0,0.0,96,0.00,,,0.00,Wunderground v.1.15,2013-01-19 14:15:00,
2013-01-19 08:20:00,34.8,33.8,30.26,ESE,112,0.0,0.0,96,0.00,,,0.00,Wunderground v.1.15,2013-01-19 14:20:00,
2013-01-19 08:25:00,36.0,35.0,30.26,NE,44,0.0,0.0,96,0.00,,,0.00,Wunderground v.1.15,2013-01-19 14:25:00,
2013-01-19 08:35:00,38.0,37.0,30.26,NE,41,0.0,0.0,96,0.00,,,0.00,Wunderground v.1.15,2013-01-19 14:35:00,
2013-01-19 08:40:00,39.0,38.0,30.26,NE,42,0.0,0.0,96,0.00,,,0.00,Wunderground v.1.15,2013-01-19 14:40:00,
2013-01-19 08:50:00,40.8,39.7,30.26,NE,46,2.0,2.0,96,0.00,,,0.00,Wunderground v.1.15,2013-01-19 14:50:00,
2013-01-19 08:55:00,41.8,40.7,30.26,NE,42,1.0,2.0,96,0.00,,,0.00,Wunderground v.1.15,2013-01-19 14:55:00,
2013-01-19 09:00:00,42.6,41.5,30.26,NNE,26,2.0,2.0,96,0.00,,,0.00,Wunderground v.1.15,2013-01-19 15:00:00,
2013-01-19 09:05:00,43.3,42.2,30.26,NE,44,2.0,4.0,96,0.00,,,0.00,Wunderground v.1.15,2013-01-19 15:05:00,
2013-01-19 09:10:00,44.1,41.9,30.26,ENE,67,2.0,2.0,92,0.00,,,0.00,Wunderground v.1.15,2013-01-19 15:10:00,
2013-01-19 09:20:00,45.6,40.4,30.26,NE,55,3.0,3.0,82,0.00,,,0.00,Wunderground v.1.15,2013-01-19 15:20:00,
2013-01-19 09:25:00,46.3,40.1,30.26,NE,49,3.0,3.0,79,0.00,,,0.00,Wunderground v.1.15,2013-01-19 15:25:00,
2013-01-19 09:30:00,47.0,40.2,30.26,NE,43,3.0,3.0,77,0.00,,,0.00,Wunderground v.1.15,2013-01-19 15:30:00,
2013-01-19 09:35:00,47.6,40.1,30.27,NE,42,3.0,3.0,75,0.00,,,0.00,Wunderground v.1.15,2013-01-19 15:35:00,
2013-01-19 09:40:00,48.2,40.6,30.27,NE,42,2.0,2.0,75,0.00,,,0.00,Wunderground v.1.15,2013-01-19 15:40:00,
2013-01-19 09:45:00,49.0,41.4,30.27,SSE,152,1.0,2.0,75,0.00,,,0.00,Wunderground v.1.15,2013-01-19 15:45:00,
2013-01-19 09:50:00,49.9,41.2,30.27,NE,41,1.0,4.0,72,0.00,,,0.00,Wunderground v.1.15,2013-01-19 15:50:00,
2013-01-19 09:55:00,50.3,40.5,30.27,NE,49,1.0,4.0,69,0.00,,,0.00,Wunderground v.1.15,2013-01-19 15:55:00,
2013-01-19 10:00:00,50.6,41.5,30.27,NE,41,2.0,2.0,71,0.00,,,0.00,Wunderground v.1.15,2013-01-19 16:00:00,
2013-01-19 10:05:00,51.4,41.2,30.27,ESE,117,1.0,2.0,68,0.00,,,0.00,Wunderground v.1.15,2013-01-19 16:05:00,
2013-01-19 10:10:00,51.6,41.4,30.27,NE,36,1.0,1.0,68,0.00,,,0.00,Wunderground v.1.15,2013-01-19 16:10:00,
2013-01-19 10:15:00,51.9,41.3,30.27,NE,36,1.0,1.0,67,0.00,,,0.00,Wunderground v.1.15,2013-01-19 16:15:00,
2013-01-19 10:20:00,52.4,42.5,30.26,ENE,59,1.0,2.0,69,0.00,,,0.00,Wunderground v.1.15,2013-01-19 16:20:00,
2013-01-19 10:25:00,52.9,42.6,30.26,NE,43,1.0,2.0,68,0.00,,,0.00,Wunderground v.1.15,2013-01-19 16:25:00,
2013-01-19 10:30:00,52.9,41.4,30.26,NE,46,2.0,2.0,65,0.00,,,0.00,Wunderground v.1.15,2013-01-19 16:30:00,
2013-01-19 10:35:00,53.3,42.2,30.26,NE,54,2.0,2.0,66,0.00,,,0.00,Wunderground v.1.15,2013-01-19 16:35:00,
2013-01-19 10:40:00,53.7,42.6,30.26,ENE,57,0.0,2.0,66,0.00,,,0.00,Wunderground v.1.15,2013-01-19 16:40:00,
2013-01-19 10:45:00,54.3,42.8,30.26,ENE,59,0.0,2.0,65,0.00,,,0.00,Wunderground v.1.15,2013-01-19 16:45:00,
2013-01-19 10:50:00,55.0,43.0,30.25,NE,55,1.0,1.0,64,0.00,,,0.00,Wunderground v.1.15,2013-01-19 16:50:00,
2013-01-19 11:00:00,55.3,42.5,30.25,NE,42,2.0,2.0,62,0.00,,,0.00,Wunderground v.1.15,2013-01-19 17:00:00,
2013-01-19 11:05:00,55.9,42.6,30.25,NE,42,1.0,2.0,61,0.00,,,0.00,Wunderground v.1.15,2013-01-19 17:05:00,
2013-01-19 11:10:00,55.5,41.8,30.25,NE,42,1.0,1.0,60,0.00,,,0.00,Wunderground v.1.15,2013-01-19 17:10:00,
2013-01-19 11:20:00,56.4,43.5,30.24,South,173,0.0,1.0,62,0.00,,,0.00,Wunderground v.1.15,2013-01-19 17:20:00,
2013-01-19 11:25:00,57.1,43.3,30.24,SE,137,0.0,1.0,60,0.00,,,0.00,Wunderground v.1.15,2013-01-19 17:25:00,
2013-01-19 11:30:00,58.0,43.7,30.24,SE,125,0.0,0.0,59,0.00,,,0.00,Wunderground v.1.15,2013-01-19 17:30:00,
2013-01-19 11:40:00,59.8,44.1,30.23,SSE,167,1.0,3.0,56,0.00,,,0.00,Wunderground v.1.15,2013-01-19 17:40:00,
2013-01-19 11:45:00,60.1,43.9,30.23,SW,229,2.0,3.0,55,0.00,,,0.00,Wunderground v.1.15,2013-01-19 17:45:00,
2013-01-19 11:55:00,60.3,44.1,30.22,SSE,156,1.0,4.0,55,0.00,,,0.00,Wunderground v.1.15,2013-01-19 17:55:00,
2013-01-19 12:00:00,60.5,44.2,30.22,SSE,151,1.0,1.0,55,0.00,,,0.00,Wunderground v.1.15,2013-01-19 18:00:00,
2013-01-19 12:05:00,60.6,43.9,30.20,SSE,164,2.0,2.0,54,0.00,,,0.00,Wunderground v.1.15,2013-01-19 18:05:00,
2013-01-19 12:10:00,60.0,44.3,30.20,WSW,253,2.0,2.0,56,0.00,,,0.00,Wunderground v.1.15,2013-01-19 18:10:00,
2013-01-19 12:15:00,59.6,43.9,30.20,SSW,197,1.0,2.0,56,0.00,,,0.00,Wunderground v.1.15,2013-01-19 18:15:00,
2013-01-19 12:20:00,59.9,44.2,30.19,SSW,200,0.0,0.0,56,0.00,,,0.00,Wunderground v.1.15,2013-01-19 18:20:00,
2013-01-19 12:25:00,60.4,44.6,30.19,West,281,0.0,2.0,56,0.00,,,0.00,Wunderground v.1.15,2013-01-19 18:25:00,
2013-01-19 12:30:00,60.9,44.6,30.19,SSW,194,2.0,2.0,55,0.00,,,0.00,Wunderground v.1.15,2013-01-19 18:30:00,
2013-01-19 12:40:00,61.5,45.2,30.18,South,184,2.0,3.0,55,0.00,,,0.00,Wunderground v.1.15,2013-01-19 18:40:00,
2013-01-19 12:45:00,61.9,45.1,30.18,SSE,156,2.0,3.0,54,0.00,,,0.00,Wunderground v.1.15,2013-01-19 18:45:00,
2013-01-19 12:50:00,62.1,45.2,30.17,South,171,3.0,3.0,54,0.00,,,0.00,Wunderground v.1.15,2013-01-19 18:50:00,
2013-01-19 12:55:00,62.2,44.9,30.17,West,269,3.0,5.0,53,0.00,,,0.00,Wunderground v.1.15,2013-01-19 18:55:00,
2013-01-19 13:05:00,61.4,45.6,30.17,SW,214,2.0,5.0,56,0.00,,,0.00,Wunderground v.1.15,2013-01-19 19:05:00,
2013-01-19 13:20:00,60.9,45.1,30.16,South,180,1.0,3.0,56,0.00,,,0.00,Wunderground v.1.15,2013-01-19 19:20:00,
2013-01-19 13:25:00,60.7,45.8,30.16,SW,223,2.0,5.0,58,0.00,,,0.00,Wunderground v.1.15,2013-01-19 19:25:00,
2013-01-19 13:30:00,60.4,45.1,30.16,SSE,161,2.0,2.0,57,0.00,,,0.00,Wunderground v.1.15,2013-01-19 19:30:00,
2013-01-19 13:35:00,60.4,45.5,30.16,SW,217,2.0,4.0,58,0.00,,,0.00,Wunderground v.1.15,2013-01-19 19:35:00,
2013-01-19 13:40:00,60.2,44.9,30.16,SSW,209,2.0,2.0,57,0.00,,,0.00,Wunderground v.1.15,2013-01-19 19:40:00,
2013-01-19 13:45:00,60.1,44.8,30.16,SE,142,1.0,2.0,57,0.00,,,0.00,Wunderground v.1.15,2013-01-19 19:45:00,
2013-01-19 13:50:00,60.2,45.4,30.15,SE,138,1.0,1.0,58,0.00,,,0.00,Wunderground v.1.15,2013-01-19 19:50:00,
2013-01-19 13:55:00,60.2,45.4,30.15,West,264,1.0,2.0,58,0.00,,,0.00,Wunderground v.1.15,2013-01-19 19:55:00,
2013-01-19 14:05:00,60.3,46.4,30.15,SE,137,2.0,2.0,60,0.00,,,0.00,Wunderground v.1.15,2013-01-19 20:05:00,
2013-01-19 14:15:00,61.4,45.6,30.15,SSE,159,2.0,4.0,56,0.00,,,0.00,Wunderground v.1.15,2013-01-19 20:15:00,
2013-01-19 14:25:00,61.7,45.4,30.14,SSW,198,2.0,3.0,55,0.00,,,0.00,Wunderground v.1.15,2013-01-19 20:25:00,
2013-01-19 14:30:00,61.9,46.0,30.14,SE,141,2.0,2.0,56,0.00,,,0.00,Wunderground v.1.15,2013-01-19 20:30:00,
2013-01-19 14:35:00,61.7,44.9,30.14,SSE,161,2.0,2.0,54,0.00,,,0.00,Wunderground v.1.15,2013-01-19 20:35:00,
2013-01-19 14:40:00,61.2,44.4,30.14,SSE,156,2.0,2.0,54,0.00,,,0.00,Wunderground v.1.15,2013-01-19 20:40:00,
2013-01-19 14:45:00,60.9,43.1,30.14,SW,229,2.0,2.0,52,0.00,,,0.00,Wunderground v.1.15,2013-01-19 20:45:00,
2013-01-19 14:50:00,60.7,44.4,30.14,SSW,209,1.0,2.0,55,0.00,,,0.00,Wunderground v.1.15,2013-01-19 20:50:00,
2013-01-19 14:55:00,61.0,44.2,30.14,West,268,2.0,3.0,54,0.00,,,0.00,Wunderground v.1.15,2013-01-19 20:55:00,
2013-01-19 15:00:00,61.1,44.8,30.14,SW,221,2.0,2.0,55,0.00,,,0.00,Wunderground v.1.15,2013-01-19 21:00:00,
2013-01-19 15:05:00,61.3,44.5,30.14,SW,219,2.0,3.0,54,0.00,,,0.00,Wunderground v.1.15,2013-01-19 21:05:00,
2013-01-19 15:15:00,61.2,44.4,30.14,SE,136,2.0,4.0,54,0.00,,,0.00,Wunderground v.1.15,2013-01-19 21:15:00,
2013-01-19 15:20:00,61.0,44.7,30.13,WSW,248,1.0,2.0,55,0.00,,,0.00,Wunderground v.1.15,2013-01-19 21:20:00,
2013-01-19 15:25:00,60.7,44.4,30.13,West,263,1.0,2.0,55,0.00,,,0.00,Wunderground v.1.15,2013-01-19 21:25:00,
2013-01-19 15:35:00,60.6,44.8,30.13,SSW,203,0.0,6.0,56,0.00,,,0.00,Wunderground v.1.15,2013-01-19 21:35:00,
2013-01-19 15:40:00,60.6,44.8,30.13,SSW,203,0.0,6.0,56,0.00,,,0.00,Wunderground v.1.15,2013-01-19 21:40:00,
2013-01-19 15:50:00,60.7,45.4,30.13,SSW,203,0.0,6.0,57,0.00,,,0.00,Wunderground v.1.15,2013-01-19 21:50:00,
2013-01-19 16:00:00,60.8,45.5,30.13,SSW,203,0.0,6.0,57,0.00,,,0.00,Wunderground v.1.15,2013-01-19 22:00:00,
2013-01-19 16:05:00,60.8,45.5,30.13,SSW,203,0.0,6.0,57,0.00,,,0.00,Wunderground v.1.15,2013-01-19 22:05:00,
2013-01-19 16:15:00,60.7,45.4,30.13,WSW,249,0.0,6.0,57,0.00,,,0.00,Wunderground v.1.15,2013-01-19 22:15:00,
2013-01-19 16:20:00,61.0,45.7,30.13,WSW,249,0.0,6.0,57,0.00,,,0.00,Wunderground v.1.15,2013-01-19 22:20:00,
2013-01-19 16:25:00,61.4,46.5,30.13,WSW,249,0.0,6.0,58,0.00,,,0.00,Wunderground v.1.15,2013-01-19 22:25:00,
2013-01-19 16:30:00,61.8,45.5,30.13,West,259,0.0,6.0,55,0.00,,,0.00,Wunderground v.1.15,2013-01-19 22:30:00,
2013-01-19 16:45:00,61.5,45.7,30.13,West,259,0.0,6.0,56,0.00,,,0.00,Wunderground v.1.15,2013-01-19 22:45:00,
2013-01-19 17:00:00,60.4,46.4,30.14,West,259,0.0,6.0,60,0.00,,,0.00,Wunderground v.1.15,2013-01-19 23:00:00,
2013-01-19 17:10:00,59.0,46.4,30.14,West,259,0.0,6.0,63,0.00,,,0.00,Wunderground v.1.15,2013-01-19 23:10:00,
2013-01-19 17:15:00,58.2,46.1,30.14,West,259,0.0,6.0,64,0.00,,,0.00,Wunderground v.1.15,2013-01-19 23:15:00,
2013-01-19 17:20:00,57.5,46.2,30.13,West,259,0.0,6.0,66,0.00,,,0.00,Wunderground v.1.15,2013-01-19 23:20:00,
2013-01-19 17:25:00,56.5,46.8,30.13,West,259,0.0,6.0,70,0.00,,,0.00,Wunderground v.1.15,2013-01-19 23:25:00,
2013-01-19 17:35:00,54.6,46.1,30.13,West,259,0.0,6.0,73,0.00,,,0.00,Wunderground v.1.15,2013-01-19 23:35:00,
2013-01-19 17:45:00,53.4,46.0,30.13,West,259,0.0,6.0,76,0.00,,,0.00,Wunderground v.1.15,2013-01-19 23:45:00,
2013-01-19 18:00:00,51.6,46.0,30.13,West,259,0.0,6.0,81,0.00,,,0.00,Wunderground v.1.15,2013-01-20 00:00:00,
2013-01-19 18:10:00,50.9,45.9,30.13,West,259,0.0,6.0,83,0.00,,,0.00,Wunderground v.1.15,2013-01-20 00:10:00,
2013-01-19 18:15:00,50.6,45.3,30.13,West,259,0.0,6.0,82,0.00,,,0.00,Wunderground v.1.15,2013-01-20 00:15:00,
2013-01-19 18:20:00,50.4,45.4,30.14,West,259,0.0,6.0,83,0.00,,,0.00,Wunderground v.1.15,2013-01-20 00:20:00,
2013-01-19 18:30:00,49.8,45.2,30.14,West,259,0.0,6.0,84,0.00,,,0.00,Wunderground v.1.15,2013-01-20 00:30:00,
2013-01-19 18:35:00,49.6,45.3,30.14,West,259,0.0,6.0,85,0.00,,,0.00,Wunderground v.1.15,2013-01-20 00:35:00,
2013-01-19 18:45:00,49.4,45.1,30.14,West,259,0.0,6.0,85,0.00,,,0.00,Wunderground v.1.15,2013-01-20 00:45:00,
2013-01-19 18:50:00,49.2,45.2,30.15,West,259,0.0,6.0,86,0.00,,,0.00,Wunderground v.1.15,2013-01-20 00:50:00,
2013-01-19 19:00:00,48.9,44.9,30.15,West,259,0.0,6.0,86,0.00,,,0.00,Wunderground v.1.15,2013-01-20 01:00:00,
2013-01-19 19:05:00,48.7,44.7,30.15,West,259,0.0,6.0,86,0.00,,,0.00,Wunderground v.1.15,2013-01-20 01:05:00,
2013-01-19 19:10:00,48.6,44.6,30.15,West,259,0.0,6.0,86,0.00,,,0.00,Wunderground v.1.15,2013-01-20 01:10:00,
2013-01-19 19:20:00,48.1,44.4,30.15,WSW,253,0.0,6.0,87,0.00,,,0.00,Wunderground v.1.15,2013-01-20 01:20:00,
2013-01-19 19:25:00,47.6,44.2,30.15,South,180,0.0,6.0,88,0.00,,,0.00,Wunderground v.1.15,2013-01-20 01:25:00,
2013-01-19 19:30:00,47.3,43.9,30.15,South,179,0.0,6.0,88,0.00,,,0.00,Wunderground v.1.15,2013-01-20 01:30:00,
2013-01-19 19:40:00,47.1,44.0,30.16,South,180,0.0,6.0,89,0.00,,,0.00,Wunderground v.1.15,2013-01-20 01:40:00,
2013-01-19 19:45:00,46.9,43.8,30.16,South,179,0.0,6.0,89,0.00,,,0.00,Wunderground v.1.15,2013-01-20 01:45:00,
2013-01-19 19:50:00,46.7,43.6,30.15,South,179,0.0,6.0,89,0.00,,,0.00,Wunderground v.1.15,2013-01-20 01:50:00,
2013-01-19 20:05:00,46.2,43.4,30.15,South,180,0.0,6.0,90,0.00,,,0.00,Wunderground v.1.15,2013-01-20 02:05:00,
2013-01-19 20:15:00,45.8,43.0,30.15,South,179,0.0,6.0,90,0.00,,,0.00,Wunderground v.1.15,2013-01-20 02:15:00,
2013-01-19 20:25:00,45.5,42.7,30.15,South,179,0.0,6.0,90,0.00,,,0.00,Wunderground v.1.15,2013-01-20 02:25:00,
2013-01-19 20:30:00,45.2,42.4,30.15,South,180,0.0,6.0,90,0.00,,,0.00,Wunderground v.1.15,2013-01-20 02:30:00,
2013-01-19 20:35:00,44.8,42.0,30.15,South,180,0.0,6.0,90,0.00,,,0.00,Wunderground v.1.15,2013-01-20 02:35:00,
2013-01-19 20:40:00,44.6,42.1,30.15,South,180,0.0,6.0,91,0.00,,,0.00,Wunderground v.1.15,2013-01-20 02:40:00,
2013-01-19 20:45:00,44.5,42.0,30.15,South,180,0.0,6.0,91,0.00,,,0.00,Wunderground v.1.15,2013-01-20 02:45:00,
2013-01-19 20:50:00,44.4,41.9,30.14,South,179,0.0,6.0,91,0.00,,,0.00,Wunderground v.1.15,2013-01-20 02:50:00,
2013-01-19 20:55:00,44.1,41.6,30.14,South,180,0.0,6.0,91,0.00,,,0.00,Wunderground v.1.15,2013-01-20 02:55:00,
2013-01-19 21:00:00,43.8,41.3,30.14,South,179,0.0,6.0,91,0.00,,,0.00,Wunderground v.1.15,2013-01-20 03:00:00,
2013-01-19 21:05:00,43.8,41.6,30.14,South,179,0.0,6.0,92,0.00,,,0.00,Wunderground v.1.15,2013-01-20 03:05:00,
2013-01-19 21:10:00,43.8,41.6,30.14,South,179,0.0,6.0,92,0.00,,,0.00,Wunderground v.1.15,2013-01-20 03:10:00,
2013-01-19 21:20:00,43.7,41.5,30.14,South,180,0.0,6.0,92,0.00,,,0.00,Wunderground v.1.15,2013-01-20 03:20:00,
2013-01-19 21:25:00,43.6,41.7,30.14,South,179,0.0,6.0,93,0.00,,,0.00,Wunderground v.1.15,2013-01-20 03:25:00,
2013-01-19 21:30:00,43.5,41.3,30.14,South,180,0.0,6.0,92,0.00,,,0.00,Wunderground v.1.15,2013-01-20 03:30:00,
2013-01-19 21:35:00,43.2,41.0,30.14,South,179,0.0,6.0,92,0.00,,,0.00,Wunderground v.1.15,2013-01-20 03:35:00,
2013-01-19 21:40:00,43.0,40.8,30.14,South,180,0.0,6.0,92,0.00,,,0.00,Wunderground v.1.15,2013-01-20 03:40:00,
2013-01-19 21:50:00,42.7,40.5,30.14,South,180,0.0,6.0,92,0.00,,,0.00,Wunderground v.1.15,2013-01-20 03:50:00,
2013-01-19 21:55:00,42.6,40.4,30.14,South,180,0.0,6.0,92,0.00,,,0.00,Wunderground v.1.15,2013-01-20 03:55:00,
2013-01-19 22:05:00,42.5,40.6,30.15,South,180,0.0,6.0,93,0.00,,,0.00,Wunderground v.1.15,2013-01-20 04:05:00,
2013-01-19 22:10:00,42.4,40.5,30.15,South,179,0.0,6.0,93,0.00,,,0.00,Wunderground v.1.15,2013-01-20 04:10:00,
2013-01-19 22:15:00,42.4,40.5,30.15,South,180,0.0,6.0,93,0.00,,,0.00,Wunderground v.1.15,2013-01-20 04:15:00,
2013-01-19 22:25:00,42.3,40.4,30.16,South,179,0.0,6.0,93,0.00,,,0.00,Wunderground v.1.15,2013-01-20 04:25:00,
2013-01-19 22:30:00,42.2,40.3,30.16,South,180,0.0,6.0,93,0.00,,,0.00,Wunderground v.1.15,2013-01-20 04:30:00,
2013-01-19 22:35:00,42.1,40.2,30.16,South,179,0.0,6.0,93,0.00,,,0.00,Wunderground v.1.15,2013-01-20 04:35:00,
2013-01-19 22:45:00,41.9,40.0,30.16,South,180,0.0,6.0,93,0.00,,,0.00,Wunderground v.1.15,2013-01-20 04:45:00,
2013-01-19 22:50:00,41.8,39.9,30.15,South,180,0.0,6.0,93,0.00,,,0.00,Wunderground v.1.15,2013-01-20 04:50:00,
2013-01-19 22:55:00,41.7,39.8,30.15,South,179,0.0,6.0,93,0.00,,,0.00,Wunderground v.1.15,2013-01-20 04:55:00,
2013-01-19 23:05:00,41.5,39.6,30.15,South,180,0.0,6.0,93,0.00,,,0.00,Wunderground v.1.15,2013-01-20 05:05:00,
2013-01-19 23:10:00,41.4,39.8,30.15,South,179,0.0,6.0,94,0.00,,,0.00,Wunderground v.1.15,2013-01-20 05:10:00,
2013-01-19 23:15:00,41.3,39.7,30.15,South,180,0.0,6.0,94,0.00,,,0.00,Wunderground v.1.15,2013-01-20 05:15:00,
2013-01-19 23:20:00,41.2,39.6,30.15,South,179,0.0,6.0,94,0.00,,,0.00,Wunderground v.1.15,2013-01-20 05:20:00,
2013-01-19 23:25:00,41.2,39.6,30.15,South,179,0.0,6.0,94,0.00,,,0.00,Wunderground v.1.15,2013-01-20 05:25:00,
2013-01-19 23:35:00,41.4,39.8,30.15,South,180,0.0,6.0,94,0.00,,,0.00,Wunderground v.1.15,2013-01-20 05:35:00,
2013-01-19 23:40:00,41.1,39.5,30.15,South,179,0.0,6.0,94,0.00,,,0.00,Wunderground v.1.15,2013-01-20 05:40:00,
2013-01-19 23:45:00,41.1,39.5,30.15,South,180,0.0,6.0,94,0.00,,,0.00,Wunderground v.1.15,2013-01-20 05:45:00,
2013-01-19 23:50:00,41.1,39.5,30.15,South,180,0.0,6.0,94,0.00,,,0.00,Wunderground v.1.15,2013-01-20 05:50:00,
2013-01-19 23:55:00,41.0,40.7,30.15,South,179,0.0,6.0,99,0.00,,,0.00,Wunderground v.1.15,2013-01-20 05:55:00,